Multibeam Report for HLY11TB


Ship Name: Healy
Chief Scientist: None
Source Organization: Rolling Deck to Repository
Start Date: 2011-05-27
End Date: 2011-06-04


View ISO Metadata

Visit the full NCEI Bathymetry Viewer


Multibeam Bathymetry

Cruise Details

Project: Transit
Instrument: Kongsberg EM122

Data Quality

Number of Files: 385
Number of Records: 207033
BATHYMETRY DATA Quantity Percentage
Number of Beams 89344512 100%
Number of Good Beams 78577347 87.95%
Number of Zero Beams 0 0%
Number of Flagged Beams 10767165 12.05%
AMPLITUDE DATA Quantity Percentage
Number of Beams 89344512 100%
Number of Good Beams 78577347 87.95%
Number of Zero Beams 0 0%
Number of Flagged Beams 10767165 12.05%
SIDESCAN DATA Quantity Percentage
Number of Pixels 211779584 100%
Number of Good Pixels 112634869 53.18%
Number of Zero Pixels 0 0%
Number of Flagged Pixels 99144715 46.82%

Navigation Totals

Total Time: 185.2495 hours
Total Track Length: 4614.5592 km
Average Speed: 24.91 km/hr (13.4503 knots)

Cruise Bounds

Northern Extent: 48.51354
Southern Extent: 21.120691
Western Extent: -158.20126
Eastern Extent: -122.42777

Limits

Minimum Sonar Depth 5.9713 Maximum Sonar Depth 11.2431
Minimum Altitude 0 Maximum Altitude 6545.4512
Minimum Depth 27.0278 Maximum Depth 6918.8101
Minimum Amplitude 0 Maximum Amplitude 5.3
Minimum Sidescan 0 Maximum Sidescan 9.9

File Information

Full Resolution Bathymetry as collected (raw): 383

Files File Size Description
0000_20110527_223039_Healy.all.mb58.gz 5.37MB Kongsberg multibeam vendor format
0001_20110527_223351_Healy.all.mb58.gz 48.30MB Kongsberg multibeam vendor format
0002_20110527_230350_Healy.all.mb58.gz 70.46MB Kongsberg multibeam vendor format
0003_20110527_233350_Healy.all.mb58.gz 66.29MB Kongsberg multibeam vendor format
0004_20110528_000350_Healy.all.mb58.gz 91.34MB Kongsberg multibeam vendor format
0005_20110528_003350_Healy.all.mb58.gz 83.72MB Kongsberg multibeam vendor format
0006_20110528_010350_Healy.all.mb58.gz 79.01MB Kongsberg multibeam vendor format
0007_20110528_013351_Healy.all.mb58.gz 63.55MB Kongsberg multibeam vendor format
0008_20110528_020350_Healy.all.mb58.gz 74.02MB Kongsberg multibeam vendor format
0009_20110528_023350_Healy.all.mb58.gz 77.51MB Kongsberg multibeam vendor format
0010_20110528_030350_Healy.all.mb58.gz 33.65MB Kongsberg multibeam vendor format
0011_20110528_031409_Healy.all.mb58.gz 71.89MB Kongsberg multibeam vendor format
0012_20110528_034410_Healy.all.mb58.gz 75.66MB Kongsberg multibeam vendor format
0013_20110528_041409_Healy.all.mb58.gz 64.93MB Kongsberg multibeam vendor format
0014_20110528_044409_Healy.all.mb58.gz 53.51MB Kongsberg multibeam vendor format
0015_20110528_051410_Healy.all.mb58.gz 53.70MB Kongsberg multibeam vendor format
0016_20110528_054409_Healy.all.mb58.gz 54.43MB Kongsberg multibeam vendor format
0017_20110528_061409_Healy.all.mb58.gz 58.33MB Kongsberg multibeam vendor format
0018_20110528_064410_Healy.all.mb58.gz 52.86MB Kongsberg multibeam vendor format
0019_20110528_071409_Healy.all.mb58.gz 49.55MB Kongsberg multibeam vendor format
0020_20110528_074409_Healy.all.mb58.gz 45.72MB Kongsberg multibeam vendor format
0021_20110528_081410_Healy.all.mb58.gz 45.84MB Kongsberg multibeam vendor format
0022_20110528_084409_Healy.all.mb58.gz 84.15MB Kongsberg multibeam vendor format
0023_20110528_091409_Healy.all.mb58.gz 62.15MB Kongsberg multibeam vendor format
0024_20110528_094410_Healy.all.mb58.gz 53.45MB Kongsberg multibeam vendor format
0025_20110528_101410_Healy.all.mb58.gz 54.51MB Kongsberg multibeam vendor format
0026_20110528_104410_Healy.all.mb58.gz 64.77MB Kongsberg multibeam vendor format
0027_20110528_111409_Healy.all.mb58.gz 48.03MB Kongsberg multibeam vendor format
0028_20110528_114409_Healy.all.mb58.gz 27.56MB Kongsberg multibeam vendor format
0029_20110528_121412_Healy.all.mb58.gz 21.35MB Kongsberg multibeam vendor format
0030_20110528_124414_Healy.all.mb58.gz 14.35MB Kongsberg multibeam vendor format
0031_20110528_131038_Healy.all.mb58.gz 15.92MB Kongsberg multibeam vendor format
0032_20110528_134041_Healy.all.mb58.gz 13.61MB Kongsberg multibeam vendor format
0033_20110528_141041_Healy.all.mb58.gz 12.97MB Kongsberg multibeam vendor format
0034_20110528_143944_Healy.all.mb58.gz 3.41MB Kongsberg multibeam vendor format
0035_20110528_144910_Healy.all.mb58.gz 13.03MB Kongsberg multibeam vendor format
0036_20110528_151912_Healy.all.mb58.gz 11.59MB Kongsberg multibeam vendor format
0037_20110528_154918_Healy.all.mb58.gz 8.71MB Kongsberg multibeam vendor format
0038_20110528_161918_Healy.all.mb58.gz 9.04MB Kongsberg multibeam vendor format
0039_20110528_164910_Healy.all.mb58.gz 8.71MB Kongsberg multibeam vendor format
0040_20110528_171915_Healy.all.mb58.gz 8.77MB Kongsberg multibeam vendor format
0041_20110528_174909_Healy.all.mb58.gz 8.79MB Kongsberg multibeam vendor format
0042_20110528_181921_Healy.all.mb58.gz 8.37MB Kongsberg multibeam vendor format
0043_20110528_184915_Healy.all.mb58.gz 8.57MB Kongsberg multibeam vendor format
0044_20110528_191910_Healy.all.mb58.gz 8.49MB Kongsberg multibeam vendor format
0045_20110528_194919_Healy.all.mb58.gz 8.45MB Kongsberg multibeam vendor format
0046_20110528_201916_Healy.all.mb58.gz 8.46MB Kongsberg multibeam vendor format
0047_20110528_204910_Healy.all.mb58.gz 8.49MB Kongsberg multibeam vendor format
0048_20110528_211914_Healy.all.mb58.gz 8.61MB Kongsberg multibeam vendor format
0049_20110528_214917_Healy.all.mb58.gz 8.40MB Kongsberg multibeam vendor format
0050_20110528_221914_Healy.all.mb58.gz 8.47MB Kongsberg multibeam vendor format
0051_20110528_224913_Healy.all.mb58.gz 8.53MB Kongsberg multibeam vendor format
0052_20110528_231915_Healy.all.mb58.gz 8.69MB Kongsberg multibeam vendor format
0053_20110528_234910_Healy.all.mb58.gz 8.82MB Kongsberg multibeam vendor format
0054_20110529_001919_Healy.all.mb58.gz 8.96MB Kongsberg multibeam vendor format
0055_20110529_004916_Healy.all.mb58.gz 12.52MB Kongsberg multibeam vendor format
0056_20110529_011913_Healy.all.mb58.gz 13.41MB Kongsberg multibeam vendor format
0057_20110529_014912_Healy.all.mb58.gz 12.98MB Kongsberg multibeam vendor format
0058_20110529_021913_Healy.all.mb58.gz 9.55MB Kongsberg multibeam vendor format
0059_20110529_024916_Healy.all.mb58.gz 10.86MB Kongsberg multibeam vendor format
0060_20110529_031917_Healy.all.mb58.gz 17.19MB Kongsberg multibeam vendor format
0061_20110529_034916_Healy.all.mb58.gz 11.99MB Kongsberg multibeam vendor format
0062_20110529_041917_Healy.all.mb58.gz 9.76MB Kongsberg multibeam vendor format
0063_20110529_044916_Healy.all.mb58.gz 8.94MB Kongsberg multibeam vendor format
0064_20110529_051912_Healy.all.mb58.gz 10.56MB Kongsberg multibeam vendor format
0065_20110529_054915_Healy.all.mb58.gz 8.82MB Kongsberg multibeam vendor format
0066_20110529_061916_Healy.all.mb58.gz 8.37MB Kongsberg multibeam vendor format
0067_20110529_064915_Healy.all.mb58.gz 8.54MB Kongsberg multibeam vendor format
0068_20110529_071909_Healy.all.mb58.gz 9.03MB Kongsberg multibeam vendor format
0069_20110529_074913_Healy.all.mb58.gz 8.40MB Kongsberg multibeam vendor format
0070_20110529_081911_Healy.all.mb58.gz 8.05MB Kongsberg multibeam vendor format
0071_20110529_084910_Healy.all.mb58.gz 7.96MB Kongsberg multibeam vendor format
0072_20110529_091918_Healy.all.mb58.gz 7.86MB Kongsberg multibeam vendor format
0073_20110529_094915_Healy.all.mb58.gz 8.01MB Kongsberg multibeam vendor format
0074_20110529_101914_Healy.all.mb58.gz 8.14MB Kongsberg multibeam vendor format
0075_20110529_104918_Healy.all.mb58.gz 8.03MB Kongsberg multibeam vendor format
0076_20110529_111919_Healy.all.mb58.gz 7.97MB Kongsberg multibeam vendor format
0077_20110529_114918_Healy.all.mb58.gz 7.90MB Kongsberg multibeam vendor format
0078_20110529_121915_Healy.all.mb58.gz 7.78MB Kongsberg multibeam vendor format
0079_20110529_124918_Healy.all.mb58.gz 8.04MB Kongsberg multibeam vendor format
0080_20110529_131914_Healy.all.mb58.gz 8.03MB Kongsberg multibeam vendor format
0081_20110529_134916_Healy.all.mb58.gz 7.94MB Kongsberg multibeam vendor format
0082_20110529_141917_Healy.all.mb58.gz 7.89MB Kongsberg multibeam vendor format
0083_20110529_144916_Healy.all.mb58.gz 7.98MB Kongsberg multibeam vendor format
0084_20110529_151913_Healy.all.mb58.gz 7.91MB Kongsberg multibeam vendor format
0085_20110529_154917_Healy.all.mb58.gz 7.87MB Kongsberg multibeam vendor format
0086_20110529_161914_Healy.all.mb58.gz 7.85MB Kongsberg multibeam vendor format
0087_20110529_164912_Healy.all.mb58.gz 7.89MB Kongsberg multibeam vendor format
0088_20110529_171918_Healy.all.mb58.gz 7.74MB Kongsberg multibeam vendor format
0089_20110529_174911_Healy.all.mb58.gz 7.66MB Kongsberg multibeam vendor format
0090_20110529_181913_Healy.all.mb58.gz 7.76MB Kongsberg multibeam vendor format
0091_20110529_184912_Healy.all.mb58.gz 7.75MB Kongsberg multibeam vendor format
0092_20110529_191913_Healy.all.mb58.gz 7.44MB Kongsberg multibeam vendor format
0093_20110529_194909_Healy.all.mb58.gz 7.65MB Kongsberg multibeam vendor format
0094_20110529_201911_Healy.all.mb58.gz 7.61MB Kongsberg multibeam vendor format
0095_20110529_204909_Healy.all.mb58.gz 7.46MB Kongsberg multibeam vendor format
0096_20110529_211909_Healy.all.mb58.gz 7.57MB Kongsberg multibeam vendor format
0097_20110529_214918_Healy.all.mb58.gz 7.48MB Kongsberg multibeam vendor format
0098_20110529_221917_Healy.all.mb58.gz 7.52MB Kongsberg multibeam vendor format
0099_20110529_224911_Healy.all.mb58.gz 7.54MB Kongsberg multibeam vendor format
0100_20110529_231913_Healy.all.mb58.gz 7.17MB Kongsberg multibeam vendor format
0101_20110529_234914_Healy.all.mb58.gz 7.36MB Kongsberg multibeam vendor format
0102_20110530_001909_Healy.all.mb58.gz 7.60MB Kongsberg multibeam vendor format
0103_20110530_004916_Healy.all.mb58.gz 5.97MB Kongsberg multibeam vendor format
0104_20110530_011912_Healy.all.mb58.gz 5.46MB Kongsberg multibeam vendor format
0105_20110530_014920_Healy.all.mb58.gz 4.81MB Kongsberg multibeam vendor format
0106_20110530_021909_Healy.all.mb58.gz 4.95MB Kongsberg multibeam vendor format
0107_20110530_024921_Healy.all.mb58.gz 4.92MB Kongsberg multibeam vendor format
0108_20110530_031918_Healy.all.mb58.gz 4.84MB Kongsberg multibeam vendor format
0109_20110530_034919_Healy.all.mb58.gz 4.87MB Kongsberg multibeam vendor format
0110_20110530_041913_Healy.all.mb58.gz 4.91MB Kongsberg multibeam vendor format
0111_20110530_044914_Healy.all.mb58.gz 4.81MB Kongsberg multibeam vendor format
0112_20110530_051917_Healy.all.mb58.gz 4.88MB Kongsberg multibeam vendor format
0113_20110530_054912_Healy.all.mb58.gz 4.95MB Kongsberg multibeam vendor format
0114_20110530_061918_Healy.all.mb58.gz 4.94MB Kongsberg multibeam vendor format
0115_20110530_064914_Healy.all.mb58.gz 4.96MB Kongsberg multibeam vendor format
0116_20110530_071916_Healy.all.mb58.gz 4.84MB Kongsberg multibeam vendor format
0117_20110530_074918_Healy.all.mb58.gz 4.85MB Kongsberg multibeam vendor format
0118_20110530_081910_Healy.all.mb58.gz 4.95MB Kongsberg multibeam vendor format
0119_20110530_084910_Healy.all.mb58.gz 4.85MB Kongsberg multibeam vendor format
0120_20110530_091915_Healy.all.mb58.gz 4.90MB Kongsberg multibeam vendor format
0121_20110530_094916_Healy.all.mb58.gz 4.88MB Kongsberg multibeam vendor format
0122_20110530_101912_Healy.all.mb58.gz 4.89MB Kongsberg multibeam vendor format
0123_20110530_104918_Healy.all.mb58.gz 4.92MB Kongsberg multibeam vendor format
0124_20110530_111908_Healy.all.mb58.gz 5.07MB Kongsberg multibeam vendor format
0125_20110530_114920_Healy.all.mb58.gz 4.91MB Kongsberg multibeam vendor format
0126_20110530_121911_Healy.all.mb58.gz 5.00MB Kongsberg multibeam vendor format
0127_20110530_124910_Healy.all.mb58.gz 4.99MB Kongsberg multibeam vendor format
0128_20110530_131912_Healy.all.mb58.gz 4.95MB Kongsberg multibeam vendor format
0129_20110530_134909_Healy.all.mb58.gz 5.00MB Kongsberg multibeam vendor format
0130_20110530_141909_Healy.all.mb58.gz 4.76MB Kongsberg multibeam vendor format
0131_20110530_144914_Healy.all.mb58.gz 4.71MB Kongsberg multibeam vendor format
0132_20110530_151915_Healy.all.mb58.gz 4.58MB Kongsberg multibeam vendor format
0133_20110530_154910_Healy.all.mb58.gz 4.70MB Kongsberg multibeam vendor format
0134_20110530_161909_Healy.all.mb58.gz 4.36MB Kongsberg multibeam vendor format
0135_20110530_164908_Healy.all.mb58.gz 4.56MB Kongsberg multibeam vendor format
0136_20110530_171909_Healy.all.mb58.gz 4.65MB Kongsberg multibeam vendor format
0137_20110530_174923_Healy.all.mb58.gz 4.58MB Kongsberg multibeam vendor format
0138_20110530_181915_Healy.all.mb58.gz 4.62MB Kongsberg multibeam vendor format
0139_20110530_184914_Healy.all.mb58.gz 4.62MB Kongsberg multibeam vendor format
0140_20110530_191918_Healy.all.mb58.gz 4.62MB Kongsberg multibeam vendor format
0141_20110530_194922_Healy.all.mb58.gz 4.80MB Kongsberg multibeam vendor format
0142_20110530_201915_Healy.all.mb58.gz 4.35MB Kongsberg multibeam vendor format
0143_20110530_204921_Healy.all.mb58.gz 4.76MB Kongsberg multibeam vendor format
0144_20110530_211911_Healy.all.mb58.gz 4.61MB Kongsberg multibeam vendor format
0145_20110530_214921_Healy.all.mb58.gz 4.63MB Kongsberg multibeam vendor format
0146_20110530_221919_Healy.all.mb58.gz 4.57MB Kongsberg multibeam vendor format
0147_20110530_224909_Healy.all.mb58.gz 4.74MB Kongsberg multibeam vendor format
0148_20110530_231909_Healy.all.mb58.gz 4.50MB Kongsberg multibeam vendor format
0149_20110530_234916_Healy.all.mb58.gz 4.49MB Kongsberg multibeam vendor format
0150_20110531_001911_Healy.all.mb58.gz 4.52MB Kongsberg multibeam vendor format
0151_20110531_004915_Healy.all.mb58.gz 4.57MB Kongsberg multibeam vendor format
0152_20110531_011909_Healy.all.mb58.gz 4.59MB Kongsberg multibeam vendor format
0153_20110531_014912_Healy.all.mb58.gz 4.66MB Kongsberg multibeam vendor format
0154_20110531_021910_Healy.all.mb58.gz 4.55MB Kongsberg multibeam vendor format
0155_20110531_024908_Healy.all.mb58.gz 4.51MB Kongsberg multibeam vendor format
0156_20110531_031914_Healy.all.mb58.gz 4.46MB Kongsberg multibeam vendor format
0157_20110531_034912_Healy.all.mb58.gz 4.46MB Kongsberg multibeam vendor format
0158_20110531_041919_Healy.all.mb58.gz 4.61MB Kongsberg multibeam vendor format
0159_20110531_044914_Healy.all.mb58.gz 4.50MB Kongsberg multibeam vendor format
0160_20110531_051916_Healy.all.mb58.gz 4.38MB Kongsberg multibeam vendor format
0161_20110531_054921_Healy.all.mb58.gz 4.40MB Kongsberg multibeam vendor format
0162_20110531_061916_Healy.all.mb58.gz 2.93MB Kongsberg multibeam vendor format
0163_20110531_064614_Healy.all.mb58.gz 349.0KB Kongsberg multibeam vendor format
0165_20110531_065141_Healy.all.mb58.gz 156.4KB Kongsberg multibeam vendor format
0167_20110531_070604_Healy.all.mb58.gz 4.62MB Kongsberg multibeam vendor format
0168_20110531_073608_Healy.all.mb58.gz 4.38MB Kongsberg multibeam vendor format
0169_20110531_080559_Healy.all.mb58.gz 4.33MB Kongsberg multibeam vendor format
0170_20110531_083559_Healy.all.mb58.gz 4.39MB Kongsberg multibeam vendor format
0171_20110531_090612_Healy.all.mb58.gz 4.39MB Kongsberg multibeam vendor format
0172_20110531_093603_Healy.all.mb58.gz 4.41MB Kongsberg multibeam vendor format
0173_20110531_100608_Healy.all.mb58.gz 4.38MB Kongsberg multibeam vendor format
0174_20110531_103602_Healy.all.mb58.gz 4.43MB Kongsberg multibeam vendor format
0175_20110531_110601_Healy.all.mb58.gz 4.46MB Kongsberg multibeam vendor format
0176_20110531_113609_Healy.all.mb58.gz 4.38MB Kongsberg multibeam vendor format
0177_20110531_120558_Healy.all.mb58.gz 4.47MB Kongsberg multibeam vendor format
0178_20110531_123611_Healy.all.mb58.gz 4.38MB Kongsberg multibeam vendor format
0179_20110531_130609_Healy.all.mb58.gz 4.38MB Kongsberg multibeam vendor format
0180_20110531_133610_Healy.all.mb58.gz 4.38MB Kongsberg multibeam vendor format
0181_20110531_140557_Healy.all.mb58.gz 4.39MB Kongsberg multibeam vendor format
0182_20110531_143607_Healy.all.mb58.gz 4.40MB Kongsberg multibeam vendor format
0183_20110531_150602_Healy.all.mb58.gz 4.31MB Kongsberg multibeam vendor format
0184_20110531_153603_Healy.all.mb58.gz 4.35MB Kongsberg multibeam vendor format
0185_20110531_160557_Healy.all.mb58.gz 4.39MB Kongsberg multibeam vendor format
0186_20110531_163609_Healy.all.mb58.gz 4.27MB Kongsberg multibeam vendor format
0187_20110531_170609_Healy.all.mb58.gz 4.25MB Kongsberg multibeam vendor format
0188_20110531_173600_Healy.all.mb58.gz 4.44MB Kongsberg multibeam vendor format
0189_20110531_180557_Healy.all.mb58.gz 4.31MB Kongsberg multibeam vendor format
0190_20110531_183610_Healy.all.mb58.gz 4.23MB Kongsberg multibeam vendor format
0191_20110531_190605_Healy.all.mb58.gz 4.24MB Kongsberg multibeam vendor format
0192_20110531_193608_Healy.all.mb58.gz 143.1KB Kongsberg multibeam vendor format
0193_20110531_194459_Healy.all.mb58.gz 4.18MB Kongsberg multibeam vendor format
0194_20110531_201507_Healy.all.mb58.gz 4.19MB Kongsberg multibeam vendor format
0195_20110531_204500_Healy.all.mb58.gz 4.23MB Kongsberg multibeam vendor format
0196_20110531_211505_Healy.all.mb58.gz 4.24MB Kongsberg multibeam vendor format
0197_20110531_214459_Healy.all.mb58.gz 4.23MB Kongsberg multibeam vendor format
0198_20110531_221510_Healy.all.mb58.gz 4.25MB Kongsberg multibeam vendor format
0199_20110531_224506_Healy.all.mb58.gz 4.14MB Kongsberg multibeam vendor format
0200_20110531_231500_Healy.all.mb58.gz 4.47MB Kongsberg multibeam vendor format
0201_20110531_234500_Healy.all.mb58.gz 4.21MB Kongsberg multibeam vendor format
0202_20110601_001504_Healy.all.mb58.gz 4.14MB Kongsberg multibeam vendor format
0203_20110601_004502_Healy.all.mb58.gz 4.15MB Kongsberg multibeam vendor format
0204_20110601_011500_Healy.all.mb58.gz 4.07MB Kongsberg multibeam vendor format
0205_20110601_014458_Healy.all.mb58.gz 4.12MB Kongsberg multibeam vendor format
0206_20110601_021457_Healy.all.mb58.gz 4.16MB Kongsberg multibeam vendor format
0207_20110601_024507_Healy.all.mb58.gz 4.16MB Kongsberg multibeam vendor format
0208_20110601_031459_Healy.all.mb58.gz 4.19MB Kongsberg multibeam vendor format
0209_20110601_034502_Healy.all.mb58.gz 4.31MB Kongsberg multibeam vendor format
0210_20110601_041510_Healy.all.mb58.gz 4.14MB Kongsberg multibeam vendor format
0211_20110601_044502_Healy.all.mb58.gz 4.22MB Kongsberg multibeam vendor format
0212_20110601_051504_Healy.all.mb58.gz 4.19MB Kongsberg multibeam vendor format
0213_20110601_054502_Healy.all.mb58.gz 4.11MB Kongsberg multibeam vendor format
0214_20110601_061459_Healy.all.mb58.gz 4.06MB Kongsberg multibeam vendor format
0215_20110601_064502_Healy.all.mb58.gz 4.19MB Kongsberg multibeam vendor format
0216_20110601_071508_Healy.all.mb58.gz 2.27MB Kongsberg multibeam vendor format
0217_20110601_073926_Healy.all.mb58.gz 4.14MB Kongsberg multibeam vendor format
0218_20110601_080926_Healy.all.mb58.gz 4.11MB Kongsberg multibeam vendor format
0219_20110601_083919_Healy.all.mb58.gz 4.15MB Kongsberg multibeam vendor format
0220_20110601_090926_Healy.all.mb58.gz 4.16MB Kongsberg multibeam vendor format
0221_20110601_093921_Healy.all.mb58.gz 4.11MB Kongsberg multibeam vendor format
0222_20110601_100923_Healy.all.mb58.gz 4.13MB Kongsberg multibeam vendor format
0223_20110601_103917_Healy.all.mb58.gz 4.19MB Kongsberg multibeam vendor format
0224_20110601_110922_Healy.all.mb58.gz 4.09MB Kongsberg multibeam vendor format
0225_20110601_113912_Healy.all.mb58.gz 4.17MB Kongsberg multibeam vendor format
0226_20110601_120912_Healy.all.mb58.gz 4.17MB Kongsberg multibeam vendor format
0227_20110601_123912_Healy.all.mb58.gz 4.12MB Kongsberg multibeam vendor format
0228_20110601_130921_Healy.all.mb58.gz 4.16MB Kongsberg multibeam vendor format
0229_20110601_133922_Healy.all.mb58.gz 4.21MB Kongsberg multibeam vendor format
0230_20110601_140926_Healy.all.mb58.gz 4.20MB Kongsberg multibeam vendor format
0231_20110601_143919_Healy.all.mb58.gz 4.26MB Kongsberg multibeam vendor format
0232_20110601_150921_Healy.all.mb58.gz 4.30MB Kongsberg multibeam vendor format
0233_20110601_153922_Healy.all.mb58.gz 4.31MB Kongsberg multibeam vendor format
0234_20110601_160923_Healy.all.mb58.gz 4.30MB Kongsberg multibeam vendor format
0235_20110601_163913_Healy.all.mb58.gz 4.30MB Kongsberg multibeam vendor format
0236_20110601_170917_Healy.all.mb58.gz 4.31MB Kongsberg multibeam vendor format
0237_20110601_173916_Healy.all.mb58.gz 4.31MB Kongsberg multibeam vendor format
0238_20110601_180918_Healy.all.mb58.gz 4.29MB Kongsberg multibeam vendor format
0239_20110601_183925_Healy.all.mb58.gz 4.22MB Kongsberg multibeam vendor format
0240_20110601_190918_Healy.all.mb58.gz 4.21MB Kongsberg multibeam vendor format
0241_20110601_193922_Healy.all.mb58.gz 4.28MB Kongsberg multibeam vendor format
0242_20110601_200918_Healy.all.mb58.gz 4.31MB Kongsberg multibeam vendor format
0243_20110601_203916_Healy.all.mb58.gz 4.35MB Kongsberg multibeam vendor format
0244_20110601_210914_Healy.all.mb58.gz 4.18MB Kongsberg multibeam vendor format
0245_20110601_213920_Healy.all.mb58.gz 4.20MB Kongsberg multibeam vendor format
0246_20110601_220920_Healy.all.mb58.gz 4.19MB Kongsberg multibeam vendor format
0247_20110601_223918_Healy.all.mb58.gz 4.17MB Kongsberg multibeam vendor format
0248_20110601_230924_Healy.all.mb58.gz 3.38MB Kongsberg multibeam vendor format
0249_20110601_234112_Healy.all.mb58.gz 4.20MB Kongsberg multibeam vendor format
0250_20110602_001112_Healy.all.mb58.gz 4.06MB Kongsberg multibeam vendor format
0251_20110602_004102_Healy.all.mb58.gz 4.23MB Kongsberg multibeam vendor format
0252_20110602_011105_Healy.all.mb58.gz 4.25MB Kongsberg multibeam vendor format
0253_20110602_014103_Healy.all.mb58.gz 4.34MB Kongsberg multibeam vendor format
0254_20110602_021109_Healy.all.mb58.gz 4.18MB Kongsberg multibeam vendor format
0255_20110602_024104_Healy.all.mb58.gz 4.09MB Kongsberg multibeam vendor format
0256_20110602_031057_Healy.all.mb58.gz 4.46MB Kongsberg multibeam vendor format
0257_20110602_034103_Healy.all.mb58.gz 4.39MB Kongsberg multibeam vendor format
0258_20110602_041108_Healy.all.mb58.gz 4.33MB Kongsberg multibeam vendor format
0259_20110602_044105_Healy.all.mb58.gz 4.35MB Kongsberg multibeam vendor format
0260_20110602_051106_Healy.all.mb58.gz 4.38MB Kongsberg multibeam vendor format
0261_20110602_054108_Healy.all.mb58.gz 4.29MB Kongsberg multibeam vendor format
0262_20110602_061100_Healy.all.mb58.gz 4.36MB Kongsberg multibeam vendor format
0263_20110602_064112_Healy.all.mb58.gz 4.31MB Kongsberg multibeam vendor format
0264_20110602_071108_Healy.all.mb58.gz 4.22MB Kongsberg multibeam vendor format
0265_20110602_074100_Healy.all.mb58.gz 4.34MB Kongsberg multibeam vendor format
0266_20110602_081059_Healy.all.mb58.gz 4.35MB Kongsberg multibeam vendor format
0267_20110602_084104_Healy.all.mb58.gz 4.32MB Kongsberg multibeam vendor format
0268_20110602_091104_Healy.all.mb58.gz 4.32MB Kongsberg multibeam vendor format
0269_20110602_094104_Healy.all.mb58.gz 4.37MB Kongsberg multibeam vendor format
0270_20110602_101103_Healy.all.mb58.gz 4.39MB Kongsberg multibeam vendor format
0271_20110602_104103_Healy.all.mb58.gz 4.33MB Kongsberg multibeam vendor format
0272_20110602_111103_Healy.all.mb58.gz 4.37MB Kongsberg multibeam vendor format
0273_20110602_114104_Healy.all.mb58.gz 4.32MB Kongsberg multibeam vendor format
0274_20110602_121110_Healy.all.mb58.gz 4.29MB Kongsberg multibeam vendor format
0275_20110602_124101_Healy.all.mb58.gz 4.35MB Kongsberg multibeam vendor format
0276_20110602_131058_Healy.all.mb58.gz 4.27MB Kongsberg multibeam vendor format
0277_20110602_134108_Healy.all.mb58.gz 4.32MB Kongsberg multibeam vendor format
0278_20110602_141102_Healy.all.mb58.gz 4.35MB Kongsberg multibeam vendor format
0279_20110602_144111_Healy.all.mb58.gz 4.37MB Kongsberg multibeam vendor format
0280_20110602_151103_Healy.all.mb58.gz 4.38MB Kongsberg multibeam vendor format
0281_20110602_154101_Healy.all.mb58.gz 4.37MB Kongsberg multibeam vendor format
0282_20110602_161105_Healy.all.mb58.gz 4.34MB Kongsberg multibeam vendor format
0283_20110602_164106_Healy.all.mb58.gz 4.42MB Kongsberg multibeam vendor format
0284_20110602_171105_Healy.all.mb58.gz 4.27MB Kongsberg multibeam vendor format
0285_20110602_174058_Healy.all.mb58.gz 4.42MB Kongsberg multibeam vendor format
0286_20110602_181104_Healy.all.mb58.gz 4.32MB Kongsberg multibeam vendor format
0287_20110602_184109_Healy.all.mb58.gz 4.36MB Kongsberg multibeam vendor format
0288_20110602_191101_Healy.all.mb58.gz 4.49MB Kongsberg multibeam vendor format
0289_20110602_194107_Healy.all.mb58.gz 4.44MB Kongsberg multibeam vendor format
0290_20110602_201106_Healy.all.mb58.gz 4.48MB Kongsberg multibeam vendor format
0291_20110602_204110_Healy.all.mb58.gz 4.54MB Kongsberg multibeam vendor format
0292_20110602_211110_Healy.all.mb58.gz 4.51MB Kongsberg multibeam vendor format
0293_20110602_214105_Healy.all.mb58.gz 4.54MB Kongsberg multibeam vendor format
0294_20110602_221108_Healy.all.mb58.gz 4.07MB Kongsberg multibeam vendor format
0295_20110602_224108_Healy.all.mb58.gz 3.62MB Kongsberg multibeam vendor format
0296_20110602_231103_Healy.all.mb58.gz 3.70MB Kongsberg multibeam vendor format
0297_20110602_234106_Healy.all.mb58.gz 3.74MB Kongsberg multibeam vendor format
0298_20110603_001108_Healy.all.mb58.gz 3.72MB Kongsberg multibeam vendor format
0299_20110603_004057_Healy.all.mb58.gz 3.77MB Kongsberg multibeam vendor format
0300_20110603_011100_Healy.all.mb58.gz 4.02MB Kongsberg multibeam vendor format
0301_20110603_014109_Healy.all.mb58.gz 3.43MB Kongsberg multibeam vendor format
0302_20110603_021057_Healy.all.mb58.gz 3.07MB Kongsberg multibeam vendor format
0303_20110603_024100_Healy.all.mb58.gz 3.53MB Kongsberg multibeam vendor format
0304_20110603_031059_Healy.all.mb58.gz 508.2KB Kongsberg multibeam vendor format
0305_20110603_032158_Healy.all.mb58.gz 3.75MB Kongsberg multibeam vendor format
0306_20110603_035156_Healy.all.mb58.gz 3.78MB Kongsberg multibeam vendor format
0307_20110603_042150_Healy.all.mb58.gz 3.79MB Kongsberg multibeam vendor format
0308_20110603_045145_Healy.all.mb58.gz 3.81MB Kongsberg multibeam vendor format
0309_20110603_052152_Healy.all.mb58.gz 3.85MB Kongsberg multibeam vendor format
0310_20110603_055153_Healy.all.mb58.gz 3.87MB Kongsberg multibeam vendor format
0311_20110603_062153_Healy.all.mb58.gz 4.25MB Kongsberg multibeam vendor format
0312_20110603_065150_Healy.all.mb58.gz 3.85MB Kongsberg multibeam vendor format
0313_20110603_072151_Healy.all.mb58.gz 3.90MB Kongsberg multibeam vendor format
0314_20110603_075144_Healy.all.mb58.gz 3.93MB Kongsberg multibeam vendor format
0315_20110603_082151_Healy.all.mb58.gz 3.95MB Kongsberg multibeam vendor format
0316_20110603_085154_Healy.all.mb58.gz 4.02MB Kongsberg multibeam vendor format
0317_20110603_092144_Healy.all.mb58.gz 4.01MB Kongsberg multibeam vendor format
0318_20110603_095154_Healy.all.mb58.gz 4.04MB Kongsberg multibeam vendor format
0319_20110603_102151_Healy.all.mb58.gz 3.93MB Kongsberg multibeam vendor format
0320_20110603_105143_Healy.all.mb58.gz 4.09MB Kongsberg multibeam vendor format
0321_20110603_112144_Healy.all.mb58.gz 4.06MB Kongsberg multibeam vendor format
0322_20110603_115154_Healy.all.mb58.gz 4.04MB Kongsberg multibeam vendor format
0323_20110603_122152_Healy.all.mb58.gz 4.03MB Kongsberg multibeam vendor format
0324_20110603_125148_Healy.all.mb58.gz 4.00MB Kongsberg multibeam vendor format
0325_20110603_132145_Healy.all.mb58.gz 4.01MB Kongsberg multibeam vendor format
0326_20110603_135153_Healy.all.mb58.gz 3.98MB Kongsberg multibeam vendor format
0327_20110603_142153_Healy.all.mb58.gz 3.96MB Kongsberg multibeam vendor format
0328_20110603_145145_Healy.all.mb58.gz 4.02MB Kongsberg multibeam vendor format
0329_20110603_152153_Healy.all.mb58.gz 4.00MB Kongsberg multibeam vendor format
0330_20110603_155145_Healy.all.mb58.gz 3.90MB Kongsberg multibeam vendor format
0331_20110603_162146_Healy.all.mb58.gz 3.92MB Kongsberg multibeam vendor format
0332_20110603_165154_Healy.all.mb58.gz 3.88MB Kongsberg multibeam vendor format
0333_20110603_172145_Healy.all.mb58.gz 5.67MB Kongsberg multibeam vendor format
0334_20110603_175150_Healy.all.mb58.gz 6.86MB Kongsberg multibeam vendor format
0335_20110603_182148_Healy.all.mb58.gz 6.70MB Kongsberg multibeam vendor format
0336_20110603_185152_Healy.all.mb58.gz 6.89MB Kongsberg multibeam vendor format
0337_20110603_192157_Healy.all.mb58.gz 6.66MB Kongsberg multibeam vendor format
0338_20110603_195145_Healy.all.mb58.gz 6.93MB Kongsberg multibeam vendor format
0339_20110603_202151_Healy.all.mb58.gz 7.69MB Kongsberg multibeam vendor format
0340_20110603_205143_Healy.all.mb58.gz 7.67MB Kongsberg multibeam vendor format
0341_20110603_212152_Healy.all.mb58.gz 15.99MB Kongsberg multibeam vendor format
0342_20110603_215145_Healy.all.mb58.gz 25.63MB Kongsberg multibeam vendor format
0343_20110603_222144_Healy.all.mb58.gz 58.95MB Kongsberg multibeam vendor format
0344_20110603_225144_Healy.all.mb58.gz 27.74MB Kongsberg multibeam vendor format
0345_20110603_232142_Healy.all.mb58.gz 27.13MB Kongsberg multibeam vendor format
0346_20110603_235144_Healy.all.mb58.gz 28.61MB Kongsberg multibeam vendor format
0347_20110604_002144_Healy.all.mb58.gz 25.93MB Kongsberg multibeam vendor format
0348_20110604_005143_Healy.all.mb58.gz 21.86MB Kongsberg multibeam vendor format
0349_20110604_012143_Healy.all.mb58.gz 25.86MB Kongsberg multibeam vendor format
0350_20110604_015144_Healy.all.mb58.gz 25.11MB Kongsberg multibeam vendor format
0351_20110604_022144_Healy.all.mb58.gz 18.81MB Kongsberg multibeam vendor format
0352_20110604_025143_Healy.all.mb58.gz 17.99MB Kongsberg multibeam vendor format
0353_20110604_032143_Healy.all.mb58.gz 14.97MB Kongsberg multibeam vendor format
0354_20110604_035107_Healy.all.mb58.gz 19.63MB Kongsberg multibeam vendor format
0355_20110604_042111_Healy.all.mb58.gz 18.04MB Kongsberg multibeam vendor format
0356_20110604_045109_Healy.all.mb58.gz 16.65MB Kongsberg multibeam vendor format
0357_20110604_052112_Healy.all.mb58.gz 17.22MB Kongsberg multibeam vendor format
0358_20110604_055110_Healy.all.mb58.gz 10.38MB Kongsberg multibeam vendor format
0359_20110604_062110_Healy.all.mb58.gz 9.35MB Kongsberg multibeam vendor format
0360_20110604_065113_Healy.all.mb58.gz 13.26MB Kongsberg multibeam vendor format
0361_20110604_072109_Healy.all.mb58.gz 19.65MB Kongsberg multibeam vendor format
0362_20110604_075110_Healy.all.mb58.gz 19.77MB Kongsberg multibeam vendor format
0363_20110604_082112_Healy.all.mb58.gz 20.06MB Kongsberg multibeam vendor format
0364_20110604_085108_Healy.all.mb58.gz 19.87MB Kongsberg multibeam vendor format
0365_20110604_092111_Healy.all.mb58.gz 20.99MB Kongsberg multibeam vendor format
0366_20110604_095113_Healy.all.mb58.gz 18.04MB Kongsberg multibeam vendor format
0367_20110604_102109_Healy.all.mb58.gz 21.76MB Kongsberg multibeam vendor format
0368_20110604_105109_Healy.all.mb58.gz 15.81MB Kongsberg multibeam vendor format
0369_20110604_112115_Healy.all.mb58.gz 17.70MB Kongsberg multibeam vendor format
0370_20110604_115110_Healy.all.mb58.gz 22.51MB Kongsberg multibeam vendor format
0371_20110604_122107_Healy.all.mb58.gz 22.88MB Kongsberg multibeam vendor format
0372_20110604_125111_Healy.all.mb58.gz 19.56MB Kongsberg multibeam vendor format
0373_20110604_132113_Healy.all.mb58.gz 15.08MB Kongsberg multibeam vendor format
0374_20110604_135113_Healy.all.mb58.gz 18.82MB Kongsberg multibeam vendor format
0375_20110604_142109_Healy.all.mb58.gz 21.66MB Kongsberg multibeam vendor format
0376_20110604_145110_Healy.all.mb58.gz 16.46MB Kongsberg multibeam vendor format
0377_20110604_152110_Healy.all.mb58.gz 17.79MB Kongsberg multibeam vendor format
0378_20110604_155108_Healy.all.mb58.gz 22.63MB Kongsberg multibeam vendor format
0379_20110604_162107_Healy.all.mb58.gz 27.22MB Kongsberg multibeam vendor format
0380_20110604_165107_Healy.all.mb58.gz 27.84MB Kongsberg multibeam vendor format
0381_20110604_172108_Healy.all.mb58.gz 28.99MB Kongsberg multibeam vendor format
0382_20110604_175107_Healy.all.mb58.gz 27.53MB Kongsberg multibeam vendor format
0383_20110604_182109_Healy.all.mb58.gz 11.10MB Kongsberg multibeam vendor format
9999.all.mb58.gz 32.5KB Kongsberg multibeam vendor format

Metadata Files: 1

Files File Size Description
HLY11TB_Multibeam.xml NGDC created ISO metadata

Water Column Sonar Data

Water Column Sonar Data Available: WCSD Map Viewer